Regional Weather Roundup
Issued by NWS Charleston, WV

Home | Current Version | Previous Version | Graphics & Text | Print | Product List | Glossary On
Versions: 1 2 3 4 5 6 7 8 9 10 11 12 13 14 15 16 17 18 19 20 21 22 23 24 25 26 27 28 29 30 31 32 33 34 35 36 37 38 39 40 41 42 43 44 45 46 47 48 49 50
000
ASUS41 KRLX 042110
RWRRLX
West Virginia Regional Weather Roundup
National Weather Service Charleston WV
400 PM EST WED MAR 04 2015

Note: "fair" indicates few or no clouds below 12,000 feet with no
significant weather and/or obstructions to visibility.

WVZ003-042200-
Northern Panhandle of West Virginia

CITY           SKY/WX    TMP DP  RH WIND       PRES   REMARKS
WHEELING       LGT SNOW  33  32  96 W5        29.93R VSB 3/4
$$

WVZ009-042200-
Northwest West Virginia

CITY           SKY/WX    TMP DP  RH WIND       PRES   REMARKS
PARKERSBURG    LGT RAIN  37  35  92 NW5       29.99R FOG
$$

WVZ006-042200-
Western West Virginia

CITY           SKY/WX    TMP DP  RH WIND       PRES   REMARKS
HUNTINGTON     LGT RAIN  39  38  96 N6        29.94S
$$

WVZ015-042200-
West Central West Virginia

CITY           SKY/WX    TMP DP  RH WIND       PRES   REMARKS
CHARLESTON     RAIN      42  40  92 NW5       29.94R FOG
$$

WVZ022-031-042200-
North Central West Virginia

CITY           SKY/WX    TMP DP  RH WIND       PRES   REMARKS
CLARKSBURG     LGT RAIN  40  38  93 W3        29.93R FOG
MORGANTOWN     LGT RAIN  39  35  86 NW5       29.93R
$$

WVZ025-035-042-045-042200-
Southern West Virginia

CITY           SKY/WX    TMP DP  RH WIND       PRES   REMARKS
BECKLEY        LGT RAIN  47  47 100 CALM      29.88F VSB 3/4
LOGAN          LGT RAIN  50  50 100 NW5       29.86S VSB<1/4
BLUEFIELD      LGT RAIN  49  45  86 CALM      29.89F FOG
LEWISBURG      DRZL/FOG  46  44  95 CALM      29.89F VSB 1/4
$$

WVZ047-042200-
Northern Mountains of West Virginia

CITY           SKY/WX    TMP DP  RH WIND       PRES   REMARKS
ELKINS         RAIN      43  32  65 N6        29.90R
$$

WVZ052-042200-
Eastern Panhandle of West Virginia

CITY           SKY/WX    TMP DP  RH WIND       PRES   REMARKS
MARTINSBURG    LGT RAIN  49  46  90 N3        29.86R FOG
PETERSBURG     NOT AVBL
$$


USA.gov is the U.S. government's official web portal to all federal, state and local government web resources and services.